FENGYUN 1C DEB

Satellite information

Favourite Embed

Satellite Type and Status

DEBRISIN ORBIT

Key statistics

Satellite FENGYUN 1C DEB at a glance.

Uptime

9493

Days in orbit

Revolutions

≈ 14.1

Per day

Orbit

SSO

Sun Synchronous Orbit

Inclination

98.9

Latest

Satellite identification and parameters

Extended collection of information and parameters for FENGYUN 1C DEB.

Object identification

Identified? True

Debris? True

Object name: FENGYUN 1C DEB

International designator: 1999-025CN

Object number (NORAD): 29796

Object ID (CCSDS): 29796

Country: PEOPLES REPUBLIC OF CHINA (PRC)

Current information (Y/N): Y

RCS size: SMALL

Orbital parameters

Period: 102.002 minutes

Inclination: 98.8832 deg

SMA: 7231.588 km

Apoapsis: 892.529 km

Periapsis: 814.377 km

RAAN: 179.7844 deg

Eccentricy: 0.0054035

Argument of periapsis: 172.3067 deg

Mean anomaly: 308.8032 deg

Mean motion: 14.11731957 rev/day

Mean motion (dot): 0.00001657 rev/day2

B* drag term: 0.00092116 1/REarth

Two-line elements (TLE)

Creation date: May 6, 2025, 3:54 a.m.

Reference frame: TEME

Reference center: EARTH

Epoch: May 5, 2025, 4:12 p.m. UTC

TLE line 0: 0 FENGYUN 1C DEB

TLE line 1: 1 29796U 99025CN 25125.67512590 .00001657 00000-0 92116-3 0 9999

TLE line 2: 2 29796 98.8832 179.7844 0054035 172.3067 308.8032 14.11731957939415

Live tracking on map

Real-time ground track for satellite FENGYUN 1C DEB.

In-orbit conjunctions

A list of the most updated potential collisions computed for object FENGYUN 1C DEB.

Target Orbit TCA Probability of collision Miss distance Type
CZ-6A DEB LEO 2024-11-25 06:39:19 0.0002896218 974.0 (m) DEBRIS
ARGOS SSO 2024-11-16 20:11:40 0.0001009211 987.0 (m) PAYLOAD
METEOR 2-11 DEB LEO 2024-09-24 22:16:36 0.0004092742 119.0 (m) DEBRIS

Associated space launch

Chinese polar orbiting meteorological satellite

FENGYUN 1C DEB was lifted into orbit during the mission ‘Long March 4B | Feng Yun 1C’, on board a Long March 4B space rocket.

The launch took place on May 10, 1999, 1:33 a.m. from Launch Complex 7.

For more information about the launch, click the button.

Launch to space Long March 4B | Feng Yun 1C
Long March 4B | Feng Yun 1C

Agency: N/A

Status: Launch Successful

Launch date: May 10, 1999, 1:33 a.m. UTC

Rocket: Long March 4B

Launch pad: Launch Complex 7

Location: Taiyuan Satellite Launch Center, People's Republic of China

...

Latest news about this satellite

There are no fresh news available about this satellite. Check back as we update our databases every day.


Newsletter sign-up

Weekly statistics, charts and insights to help you stay on top of the space industry.